Castlegar, British Columbia

5:51 PM PST on February 10, 2016 (GMT -0800)
Castlegar

Weather History for CYCG - April, 2013

Change the Weather History Date:

Thursday, April 25, 2013

  Actual Average Record
Temperature  
Mean Temperature 58 °F -  
Max Temperature 73 °F 64 °F 78 °F (2001)
Min Temperature 42 °F 42 °F 32 °F (2002)
Degree Days  
Heating Degree Days 8    
Growing Degree Days 8 (Base 50)    
Moisture  
Dew Point 34 °F    
Average Humidity 48    
Maximum Humidity 95    
Minimum Humidity 18    
Precipitation  
Precipitation 0.08 in 0.08 in - ()
Sea Level Pressure  
Sea Level Pressure 29.98 in    
Wind  
Wind Speed 6 mph ()    
Max Wind Speed 17 mph    
Max Gust Speed 23 mph    
Visibility 15.0 miles    
Events      
Averages and records for this station are not official NWS values.
T = Trace of Precipitation, MM = Missing Value Source: Averaged Metar Reports

Daily Weather History Graph

Daily Weather History Graph

Search for Another Location

Airport or City:

Trip Planner

Search our weather history database for the weather conditions in past years. The results will help you decide how hot, cold, wet, or windy it might be!

Date:

Astronomy

Apr. 25, 2013 Rise Set
Actual Time 5:38 AM PDT 7:58 PM PDT
Civil Twilight 5:03 AM PDT 8:34 PM PDT
Nautical Twilight 4:20 AM PDT 9:18 PM PDT
Astronomical Twilight 3:29 AM PDT 10:09 PM PDT
Moon 8:20 PM PDT (4/25) 5:25 AM PDT (4/25)
Length of Visible Light 15h 30m
Length of Day
14h 19m
Full, 100% of the Moon is Illuminated
Apr 25
Full
Apr 25
Full
May 2
Last Quarter
May 9
New
May 17
First Quarter

Hourly Weather History & Observations

Time (PDT) Temp. Windchill Dew Point Humidity Pressure Visibility Wind Dir Wind Speed Gust Speed Precip Events Conditions
5:00 AM 49 °F - 48 °F 95% 30.03 in - SSE 17.3 mph - -  
6:00 AM 39.2 °F 35.9 °F 30.2 °F 70% 29.96 in 15.0 mi ESE 4.6 mph - N/A   Mostly Cloudy
7:00 AM 39.2 °F - 32.0 °F 75% 29.97 in 15.0 mi South 2.3 mph - N/A   Partly Cloudy
8:00 AM 44.6 °F 43.1 °F 32.0 °F 61% 29.97 in 15.0 mi SE 3.5 mph - N/A   Partly Cloudy
9:00 AM 50.0 °F - 32.0 °F 50% 29.96 in 15.0 mi SE 5.8 mph - N/A   Partly Cloudy
10:00 AM 53.6 °F - 33.8 °F 47% 29.95 in 15.0 mi South 2.3 mph - N/A   Scattered Clouds
11:00 AM 51 °F - 50 °F 94% 30.04 in - SE 5.8 mph - -  
12:00 PM 66.2 °F - 32.0 °F 28% 29.93 in 15.0 mi North 8.1 mph - N/A   Mostly Cloudy
1:00 PM 69.8 °F - 28.4 °F 21% 29.92 in 15.0 mi West 8.1 mph - N/A   Mostly Cloudy
2:00 PM 71.6 °F - 28.4 °F 20% 29.92 in 15.0 mi West 11.5 mph 23.0 mph N/A   Mostly Cloudy
3:00 PM 71.6 °F - 28.4 °F 20% 29.92 in 15.0 mi NNW 4.6 mph - N/A   Mostly Cloudy
4:00 PM 73.4 °F - 26.6 °F 18% 29.91 in 15.0 mi NW 4.6 mph - N/A   Scattered Clouds
5:00 PM 44 °F - 42 °F 90% 30.17 in - WSW 3.5 mph - -  
5:00 PM 73.4 °F - 28.4 °F 19% 29.91 in 15.0 mi West 5.8 mph - N/A   Mostly Cloudy
6:00 PM 71.6 °F - 26.6 °F 19% 29.92 in 15.0 mi WNW 9.2 mph - N/A   Mostly Cloudy
7:00 PM 69.8 °F - 33.8 °F 27% 29.93 in 15.0 mi NNW 3.5 mph - N/A   Mostly Cloudy
8:00 PM 62.6 °F - 32.0 °F 32% 29.94 in 15.0 mi North 10.4 mph - N/A   Mostly Cloudy
9:00 PM 57.2 °F - 33.8 °F 41% 29.98 in 15.0 mi NNE 2.3 mph - N/A   Mostly Cloudy
11:00 PM 42 °F - 40 °F 90% 30.24 in - NNW 9.2 mph - -